Tracking 29782 objects as of 13-Oct-2024
HD Live streaming from Space Station
objects crossing your sky now

H-2A R/B

Track H-2A R/B now!
10-day predictions


NORAD ID: 36105
Int'l Code: 2009-066B
Perigee: 350.1 km
Apogee: 356.7 km
Inclination: 97.4 °
Period: 91.5 minutes
Semi major axis: 6724 km
RCS: Unknown
Launch date: November 28, 2009
Source: Japan (JPN)
Launch site: TANEGASHIMA SPACE CENTER (TNSTA)

Note: This is a ROCKET BODY
Your satellite tracking list
Your tracking list is empty




NASA's NSSDC Master Catalog

Two Line Element Set (TLE):
1 36105U 09066B   24286.91789377  .00209746  00000-0  14181-2 0  9994
2 36105  97.3924 277.7530 0004921 353.0592   7.0603 15.74425061821355
Source of the keplerian elements: McCants